Find Starlink 3580

NORAD ID: 51781 Int'l Des: 2022-017 Owner: SPXS Country: US Constellation: starlink operational
LEOCIRCULAR

リアルタイム位置

3D地球を読み込み中...

Starlink 3580について

説明を読み込み中...

次回通過

Passes for default location (London). Set your location on the main map for personalized predictions.

高度履歴

Loading altitude history...

軌道要素

1 51781U 22017P 26127.26907036 -.00000425 00000-0 -86083-5 0 9998
2 51781 53.2172 76.1090 0001351 93.7292 266.3855 15.08845654231264
Epoch: May 7, 2026 • Age: 18 hours

現在のステータス

高度 540.6 km
速度 7.60 km/s
衛星直下点 27.72°N, 131.55°W
打ち上げ日 Feb 25, 2022
運用期間 4.1 years
タイプ internet

技術仕様

分類 Payload
質量 297.00 kg
乾燥質量 275.00 kg
総質量 297.00 kg
長さ 0.20 m
直径 2.80 m
スパン 9.00 m
形状 Box + pan
製造者 SPXS
バスタイプ Starlink
フェーズステータス In Orbit
所有者/国 SPXS/US

Most Searched